Date,TemperatureHighF,TemperatureAvgF,TemperatureLowF,DewpointHighF,DewpointAvgF,DewpointLowF,HumidityHigh,HumidityAvg,HumidityLow,PressureMaxIn,PressureMinIn,WindSpeedMaxMPH,WindSpeedAvgMPH,GustSpeedMaxMPH,PrecipitationSumIn
2013-1-1,-200.0,0.0,200.0,99.9,99.9,99.9,0,0,100,29.82,29.65,33,18,34,0.00
2013-1-2,-200.0,0.0,200.0,99.9,99.9,99.9,0,0,100,29.97,29.81,29,15,30,0.00
2013-1-3,-200.0,0.0,200.0,99.9,99.9,99.9,0,0,100,30.03,29.90,30,13,31,0.00
2013-1-4,-200.0,0.0,200.0,99.9,99.9,99.9,0,0,100,29.90,29.76,33,16,33,0.00
2013-1-5,-200.0,0.0,200.0,99.9,99.9,99.9,0,0,100,30.14,29.79,28,12,30,0.00
2013-1-6,-200.0,0.0,200.0,99.9,99.9,99.9,0,0,100,30.10,29.83,22,8,24,0.04
2013-1-7,-200.0,0.0,200.0,99.9,99.9,99.9,0,0,100,30.28,29.86,23,8,23,0.00
2013-1-8,-200.0,0.0,200.0,99.9,99.9,99.9,0,0,100,30.30,30.20,22,8,24,0.00
2013-1-9,-200.0,0.0,200.0,99.9,99.9,99.9,0,0,100,30.28,29.95,33,7,33,0.00
2013-1-10,-200.0,0.0,200.0,99.9,99.9,99.9,0,0,100,30.40,29.99,31,15,33,0.00
2013-1-11,-200.0,0.0,200.0,99.9,99.9,99.9,0,0,100,30.40,30.05,14,4,17,0.17
2013-1-12,-200.0,0.0,200.0,99.9,99.9,99.9,0,0,100,30.05,29.97,17,6,19,0.04
2013-1-13,-200.0,0.0,200.0,99.9,99.9,99.9,0,0,100,30.05,29.92,11,2,14,0.01
2013-1-14,-200.0,0.0,200.0,99.9,99.9,99.9,0,0,100,30.13,29.84,24,8,24,0.02
2013-1-15,-200.0,0.0,200.0,99.9,99.9,99.9,0,0,100,30.19,30.08,18,4,20,0.19
2013-1-16,-200.0,0.0,200.0,99.9,99.9,99.9,0,0,100,30.11,29.62,21,7,23,0.46
2013-1-17,-200.0,0.0,200.0,99.9,99.9,99.9,0,0,100,29.95,29.76,25,11,25,0.00
2013-1-18,-200.0,0.0,200.0,99.9,99.9,99.9,0,0,100,30.37,29.88,36,10,36,0.00
2013-1-19,-200.0,0.0,200.0,99.9,99.9,99.9,0,0,100,30.31,29.82,27,10,30,0.00
2013-1-20,-200.0,0.0,200.0,99.9,99.9,99.9,0,0,100,29.82,29.53,28,12,29,0.00
2013-1-21,-200.0,0.0,200.0,99.9,99.9,99.9,0,0,100,29.98,29.65,25,6,26,0.00
2013-1-22,-200.0,0.0,200.0,99.9,99.9,99.9,0,0,100,29.97,29.64,33,15,34,0.00
2013-1-23,-200.0,0.0,200.0,99.9,99.9,99.9,0,0,100,30.06,29.96,27,15,28,0.00
2013-2-15,-200.0,0.0,200.0,99.9,99.9,99.9,0,0,100,29.84,29.81,9,2,11,0.00
2013-2-16,36.4,14.8,32.5,99.9,70.4,27.3,93,39,82,29.81,29.62,23,-162,25,0.08
2013-2-17,32.4,26.9,21.9,27.5,17.3,9.3,93,69,48,29.72,29.41,45,25,48,0.00
2013-2-18,34.6,27.5,21.0,22.3,13.4,8.7,70,56,38,30.14,29.72,46,22,46,0.00
2013-2-19,49.2,42.7,33.5,47.7,35.3,18.2,96,76,52,30.14,29.54,22,7,22,0.65
2013-2-20,41.7,34.7,28.8,40.6,23.9,14.1,96,65,49,29.78,29.53,34,20,40,0.00
2013-2-21,34.7,30.0,27.9,21.8,18.8,15.9,72,63,54,30.11,29.75,33,19,33,0.00
2013-2-22,39.0,34.3,29.4,28.3,24.9,20.8,75,68,60,30.27,30.10,27,8,28,0.00
2013-2-23,40.6,38.2,36.1,37.6,33.7,28.0,96,84,73,30.23,29.70,25,10,25,0.19
2013-2-24,41.4,38.4,35.2,39.8,36.7,32.8,97,94,88,29.79,29.53,23,11,23,0.12
2013-2-25,39.8,37.2,35.0,34.6,32.7,30.9,93,84,73,30.16,29.79,15,5,16,0.00
2013-2-26,41.6,38.8,36.1,37.0,33.1,29.0,92,80,63,30.25,29.97,25,7,28,0.00
2013-2-27,44.9,42.4,39.3,44.1,41.3,36.9,98,96,91,29.97,29.47,39,17,40,1.03
2013-2-28,42.3,40.2,38.4,40.1,39.0,37.6,98,95,91,29.55,29.44,15,4,19,0.00
2013-3-1,40.2,38.8,37.7,39.2,37.0,35.6,97,93,92,29.49,29.44,12,7,14,0.00
2013-3-15,40.8,38.8,33.0,34.7,29.2,18.3,81,69,52,29.80,29.66,22,13,23,0.00
2013-3-16,39.5,35.9,33.8,32.7,24.0,16.8,82,63,43,29.84,29.69,23,8,27,0.00
2013-3-17,40.0,35.2,31.7,29.8,19.8,11.4,79,54,34,30.23,29.84,21,12,21,0.00
2013-3-18,35.8,32.2,26.6,30.3,19.3,9.1,86,59,44,30.37,30.06,25,9,25,0.00
2013-3-19,41.5,38.0,34.0,40.4,36.3,30.2,97,94,82,30.06,29.47,36,16,38,0.95
2013-3-20,41.3,37.0,33.9,33.2,27.4,22.8,91,69,52,29.75,29.61,32,14,33,0.00
2013-3-21,39.1,35.5,31.2,33.0,28.6,23.8,95,77,60,29.75,29.52,16,6,16,0.02
2013-3-22,40.1,35.1,30.0,29.3,24.5,19.3,88,65,58,29.71,29.55,30,16,30,0.00
2013-3-23,43.9,39.1,35.8,32.6,27.1,23.0,72,62,49,29.76,29.61,30,17,30,0.00
2013-3-24,45.0,38.7,35.1,33.1,27.9,23.4,79,65,49,29.79,29.64,27,9,27,0.00
2013-3-25,42.4,38.7,35.6,37.1,33.4,29.9,92,81,70,29.68,29.35,33,9,33,0.02
2013-3-26,44.7,39.8,36.6,36.2,33.0,29.5,92,77,62,29.73,29.39,21,6,22,0.00
2013-3-27,48.7,42.0,37.0,36.8,32.8,27.5,78,70,60,29.79,29.70,19,9,21,0.00
2013-3-28,47.9,42.2,38.6,37.2,34.7,31.9,88,75,58,29.96,29.78,15,5,15,0.00
2013-3-29,52.1,44.2,39.9,39.0,37.1,35.3,88,77,55,30.00,29.93,17,6,17,0.00
2013-3-30,50.9,44.3,40.8,38.6,36.6,34.3,85,75,55,30.05,29.97,17,6,18,0.00
2013-3-31,52.4,45.6,37.1,45.1,39.3,33.3,96,80,55,30.07,29.59,21,5,24,0.17
2013-4-1,50.6,44.8,38.6,46.7,40.9,22.1,97,87,51,29.76,29.53,26,11,27,0.07
2013-4-2,41.3,38.0,34.5,25.7,21.8,17.4,63,52,43,29.92,29.76,31,16,34,0.00
2013-4-3,43.8,38.5,34.7,30.7,21.9,16.6,62,51,42,30.13,29.91,31,18,33,0.00
2013-4-4,44.4,38.8,34.1,35.3,27.0,18.6,83,63,48,30.27,30.04,28,10,28,0.00
2013-4-5,51.9,43.8,40.4,42.5,37.0,28.7,94,78,48,30.04,29.59,28,6,30,0.08
2013-4-6,46.1,40.5,36.9,32.0,24.8,12.7,81,55,32,30.27,29.81,27,10,29,0.00
2013-4-7,50.8,43.8,34.5,43.6,36.9,28.6,93,78,48,30.26,30.00,23,7,26,0.00
2013-4-8,59.4,49.8,44.3,46.4,44.0,41.8,94,82,57,30.04,29.92,19,6,19,0.00
2013-4-9,64.7,52.2,46.4,49.0,45.9,42.6,97,81,49,30.02,29.82,18,7,21,0.00
2013-4-10,58.7,48.9,43.7,50.5,45.2,42.6,97,88,71,29.97,29.79,24,7,28,0.20
2013-4-11,53.1,46.2,43.4,49.9,43.6,40.0,98,91,82,30.04,29.75,19,6,22,0.05
2013-4-12,44.2,42.2,39.3,41.2,38.8,35.3,97,88,73,30.04,29.62,35,15,41,0.95
2013-4-13,49.9,43.7,39.9,42.9,39.9,36.9,95,87,73,29.93,29.60,22,8,25,0.06
2013-4-14,53.3,47.5,42.8,44.2,39.7,32.4,93,75,59,30.18,29.92,19,7,19,0.00
2013-4-15,51.4,45.3,41.7,41.2,37.2,31.5,94,74,61,30.36,30.17,12,4,15,0.00
2013-4-16,56.2,49.9,42.5,48.3,44.9,39.6,93,83,70,30.36,30.09,27,8,31,0.00
2013-4-17,62.8,52.1,44.4,50.2,44.5,37.9,97,77,51,30.27,30.05,22,5,22,0.04
2013-4-18,54.1,48.5,41.6,49.3,43.3,37.9,96,83,60,30.35,30.10,17,6,20,0.00
2013-4-19,63.4,57.8,51.3,61.1,56.3,49.3,98,95,88,30.10,29.69,32,12,33,0.01
2013-4-20,58.6,50.4,46.0,57.9,46.0,37.2,99,86,60,30.15,29.63,31,9,33,0.58
2013-4-21,49.7,42.9,37.6,37.2,29.4,23.8,80,59,42,30.61,30.15,27,8,28,0.00
2013-4-22,49.0,44.7,41.3,40.6,36.4,33.4,79,73,59,30.63,30.46,28,11,28,0.00
2013-4-23,45.4,44.1,42.2,43.8,41.6,36.1,95,91,77,30.46,29.94,31,12,31,0.03
2013-4-24,54.6,47.7,44.1,49.1,44.3,41.4,98,88,75,29.94,29.84,26,10,29,0.00
2013-4-25,57.5,50.3,46.2,49.3,43.6,37.6,98,79,50,30.21,29.83,18,6,20,0.02
2013-4-26,58.7,50.6,44.1,47.0,41.9,36.5,94,73,49,30.37,30.21,13,4,14,0.00
2013-4-27,55.3,49.1,44.1,48.2,44.3,38.8,96,84,58,30.38,30.29,13,4,15,0.00
2013-4-28,60.4,50.3,40.0,49.8,42.3,23.6,98,79,25,30.32,30.23,13,4,14,0.00
2013-4-29,60.6,53.9,50.0,47.2,41.9,30.4,90,66,34,30.25,30.19,13,5,14,0.00
2013-4-30,58.4,51.2,44.1,46.6,41.5,29.3,95,72,34,30.32,30.20,14,4,14,0.00
2013-5-1,58.4,51.4,44.0,50.5,45.7,41.2,95,81,69,30.45,30.31,15,5,15,0.00
2013-5-2,64.5,53.9,45.2,51.0,46.7,43.6,96,78,52,30.43,30.33,18,4,20,0.00
2013-5-3,55.7,50.7,46.8,47.0,44.7,41.5,92,80,66,30.43,30.32,20,9,24,0.00
2013-5-4,54.5,49.8,45.0,47.7,43.6,40.2,93,80,66,30.32,30.24,26,9,26,0.00
2013-5-5,54.6,48.7,44.0,47.2,44.0,41.3,93,84,69,30.27,30.21,18,7,18,0.00
2013-5-6,55.9,48.3,43.8,50.4,45.0,40.7,97,89,81,30.25,30.15,14,4,14,0.00
2013-5-7,58.6,52.5,45.7,56.0,51.0,44.6,98,95,88,30.15,30.10,14,5,14,0.00
2013-5-8,60.6,56.5,52.9,58.7,55.5,52.0,99,97,92,30.13,30.01,19,6,20,0.04
2013-5-9,59.7,54.2,51.3,59.2,53.9,51.0,100,99,97,30.01,29.84,16,5,21,0.27
2013-5-10,70.3,58.5,50.6,60.4,55.2,50.3,100,90,61,29.95,29.88,18,6,19,0.01
2013-5-11,61.9,58.6,55.4,60.4,57.2,53.3,99,95,87,29.92,29.68,25,8,26,0.71
2013-5-12,60.7,56.4,52.7,57.7,52.6,41.3,100,88,65,29.82,29.61,20,6,21,0.05
2013-5-13,56.7,52.1,48.8,43.6,39.0,33.3,72,61,49,29.99,29.82,24,12,25,0.00
2013-5-14,56.0,50.4,45.1,45.2,39.0,33.1,82,65,49,30.04,29.96,20,7,22,0.00
2013-5-15,60.4,54.0,46.8,53.7,48.6,40.5,95,83,51,30.04,29.66,28,6,28,0.00
2013-5-16,64.5,57.8,52.2,56.9,52.0,48.0,96,82,58,29.78,29.64,21,6,21,0.00
2013-5-17,66.1,58.1,52.6,51.9,48.8,46.5,85,72,51,30.18,29.76,14,4,14,0.00
2013-5-18,63.9,56.3,48.1,54.7,50.9,45.6,94,83,63,30.30,30.18,15,4,19,0.00
2013-5-19,66.7,57.2,51.7,56.2,52.3,47.7,98,85,64,30.34,30.19,14,4,16,0.17
2013-5-20,64.7,58.1,55.3,62.9,57.2,55.0,99,97,88,30.19,29.94,17,6,18,0.05
2013-5-21,67.5,60.6,55.2,63.8,59.2,54.9,100,95,84,29.96,29.84,19,5,20,0.01
2013-5-22,66.8,58.4,53.4,63.3,57.3,52.8,98,96,87,29.93,29.87,18,5,19,0.00
2013-5-23,67.9,62.5,58.5,64.5,61.1,57.9,99,95,88,29.93,29.83,30,9,30,0.09
2013-5-24,67.2,60.0,50.5,66.2,59.1,49.2,100,97,90,29.83,29.67,21,6,21,0.64
2013-5-25,51.7,49.3,46.0,50.2,47.2,41.8,98,93,84,29.77,29.70,31,12,31,0.14
2013-5-26,58.5,52.4,45.8,48.8,45.0,41.3,87,76,65,30.12,29.75,33,16,33,0.03
2013-5-27,62.0,55.8,51.3,51.9,48.6,45.4,88,77,61,30.16,30.08,24,8,24,0.00
2013-5-28,66.3,57.5,51.0,56.9,52.7,47.9,98,85,61,30.21,30.14,16,4,18,0.04
2013-5-29,64.0,59.1,56.9,60.3,57.3,55.3,98,94,86,30.14,29.99,21,7,21,0.09
2013-5-30,73.7,64.3,59.3,67.1,60.6,57.3,96,88,75,30.08,30.02,21,6,23,0.00
2013-5-31,77.7,67.0,59.5,68.8,62.2,57.0,94,85,70,30.09,29.97,20,5,21,0.00
2013-6-1,70.7,63.8,59.2,65.5,60.8,57.3,97,90,82,30.01,29.93,26,7,26,0.00
2013-6-2,69.2,63.6,59.5,64.3,61.3,58.5,98,92,83,29.94,29.82,29,9,30,0.00
2013-6-3,65.4,61.4,57.9,65.0,60.9,57.6,100,99,95,29.84,29.78,25,7,26,1.32
2013-6-4,64.9,60.4,56.3,58.2,51.8,43.9,100,74,61,30.05,29.79,18,8,19,0.01
2013-6-5,68.3,62.1,56.6,55.5,52.5,46.8,89,72,49,30.19,30.04,14,4,16,0.00
2013-6-6,67.9,61.2,54.9,63.0,57.3,53.0,97,87,73,30.16,30.05,14,5,16,0.00
2013-6-7,66.5,59.6,57.0,66.3,58.4,55.9,100,96,87,30.05,29.67,28,11,28,2.05
2013-6-8,67.5,62.7,56.8,67.1,61.0,56.4,99,95,83,29.99,29.48,22,8,24,0.20
2013-6-9,71.8,64.8,58.9,63.3,59.7,57.1,99,84,70,30.16,29.99,15,5,17,0.00
2013-6-10,68.5,62.7,59.4,63.3,60.1,57.2,99,92,80,30.16,29.90,20,5,23,0.91
2013-6-11,70.5,64.4,59.8,67.4,63.3,59.4,100,97,87,29.90,29.56,23,6,23,1.01
2013-6-12,68.3,63.6,60.5,60.4,57.8,55.6,94,82,68,29.80,29.59,21,10,22,0.11
2013-6-13,64.9,59.8,55.0,58.8,56.1,52.8,96,88,76,29.81,29.48,30,7,33,0.12
2013-6-14,65.6,59.3,55.1,58.4,54.8,51.6,96,86,66,29.76,29.45,31,12,31,0.32
2013-6-15,72.2,64.3,58.8,61.2,58.3,56.1,95,82,58,29.94,29.76,16,6,17,0.10
2013-6-16,72.5,64.8,59.5,63.1,60.6,58.0,96,87,68,29.94,29.74,21,6,22,0.03
2013-6-17,76.5,67.6,62.2,69.0,63.8,59.8,95,88,76,29.91,29.79,18,5,23,0.00
2013-6-18,72.8,65.3,60.1,67.7,62.7,58.7,98,92,80,29.90,29.84,18,4,18,0.11
2013-6-19,73.2,64.8,59.1,61.7,58.1,54.7,97,80,56,30.14,29.82,18,6,19,0.05
2013-6-20,72.5,64.5,59.6,61.7,57.9,50.3,94,80,53,30.28,30.14,17,5,19,0.00
2013-6-21,71.0,65.2,59.4,62.6,59.7,57.3,95,83,65,30.29,30.22,25,5,27,0.00
2013-6-22,73.3,66.6,61.4,65.5,62.5,59.9,97,87,71,30.25,30.14,17,5,22,0.00
2013-6-23,74.5,68.8,62.8,68.3,65.5,62.2,99,90,78,30.18,30.07,22,6,23,0.00
2013-6-24,78.9,70.7,64.4,72.7,68.0,63.8,99,92,78,30.07,29.93,20,5,20,0.00
2013-6-25,78.8,71.1,64.8,71.6,67.3,63.1,97,88,76,29.95,29.77,20,6,21,0.00
2013-6-26,77.7,71.3,65.6,70.8,67.4,64.2,98,88,78,29.81,29.75,15,5,16,0.00
2013-6-27,71.2,68.6,66.5,69.1,67.8,65.9,99,97,92,29.80,29.69,14,4,15,0.00
2013-6-28,75.2,70.6,68.8,72.8,70.1,68.2,100,99,91,29.69,29.53,24,8,25,0.31
2013-6-29,75.8,70.6,68.0,72.2,69.5,67.6,100,97,86,29.71,29.49,23,7,23,0.04
2013-6-30,74.7,70.7,68.4,74.2,69.6,67.8,100,96,87,29.93,29.71,19,6,21,0.02
2013-7-1,76.2,71.8,69.5,73.8,71.0,69.1,100,98,91,30.08,29.92,22,7,25,0.03
2013-7-2,76.7,72.6,68.0,74.5,71.3,67.1,99,96,89,30.18,30.07,19,7,21,0.50
2013-7-3,75.9,71.6,67.7,73.5,70.7,67.3,100,97,91,30.23,30.16,21,5,21,0.00
2013-7-4,77.2,71.5,68.4,73.8,70.5,68.3,100,97,88,30.23,30.14,16,5,18,0.00
2013-7-5,78.1,73.0,68.3,73.9,70.9,67.6,100,93,86,30.18,30.07,20,6,20,0.00
2013-7-6,81.1,74.1,68.2,75.1,71.0,67.5,99,91,78,30.08,29.97,16,5,17,0.00
2013-7-7,81.8,75.4,69.9,75.9,72.3,68.1,99,91,80,30.01,29.93,20,5,20,0.00
2013-7-8,78.8,73.6,69.5,72.9,70.2,68.0,98,90,80,30.04,29.92,18,5,19,0.00
2013-7-9,77.8,73.1,68.6,75.8,71.7,67.9,99,96,86,30.09,30.02,14,3,14,0.02
2013-7-10,81.8,74.9,71.7,77.1,73.4,70.7,100,95,83,30.05,29.83,21,6,24,0.02
2013-7-11,75.3,71.3,69.0,74.0,70.6,68.2,100,98,94,29.90,29.81,20,4,20,0.13
2013-7-12,74.7,70.6,68.1,70.5,68.5,66.2,100,93,83,30.14,29.89,17,6,19,0.01
2013-7-13,72.5,69.9,68.1,72.0,69.6,67.2,100,99,97,30.30,30.14,15,6,17,0.63
2013-7-14,81.0,74.7,68.2,77.0,73.0,68.1,100,95,84,30.31,30.22,15,4,17,0.01
2013-7-15,83.6,76.1,70.7,76.6,72.7,69.7,98,90,77,30.22,30.11,14,4,14,0.00
2013-7-16,89.2,79.1,72.2,76.1,72.4,70.0,95,81,61,30.16,30.11,9,3,10,0.00
2013-7-17,87.3,78.6,71.1,76.0,72.6,68.9,99,84,60,30.20,30.07,15,4,16,0.00
2013-7-18,89.5,79.2,72.0,78.7,74.4,71.0,98,86,69,30.07,29.97,15,5,16,0.00
2013-7-19,82.5,77.9,73.2,77.8,75.1,71.7,99,91,84,29.97,29.76,21,7,25,0.00
2013-7-20,80.0,75.6,71.6,75.4,73.1,70.3,99,92,82,29.79,29.67,24,7,24,0.00
2013-7-21,78.9,73.6,69.7,73.1,68.8,65.4,98,85,75,29.96,29.78,10,3,10,0.00
2013-7-22,77.0,72.1,70.4,72.5,70.6,69.4,100,95,85,29.97,29.85,15,5,15,0.00
2013-7-23,82.8,75.5,70.7,79.4,74.0,69.7,100,96,86,29.85,29.57,21,5,22,0.02
2013-7-24,85.6,74.9,69.7,76.2,71.3,67.0,98,89,71,29.90,29.58,12,4,13,0.00
2013-7-25,72.5,66.0,63.4,67.6,61.8,57.9,94,87,76,30.02,29.90,20,8,21,0.02
2013-7-26,68.8,65.8,63.0,66.8,64.3,61.6,98,95,92,30.01,29.88,20,8,22,0.26
2013-7-27,78.6,72.0,66.7,72.6,69.1,65.8,98,91,73,30.05,29.96,19,4,19,0.01
2013-7-28,78.8,71.8,69.0,73.5,70.2,68.5,100,95,82,29.99,29.91,14,3,14,0.00
2013-7-29,84.1,75.0,69.2,77.0,72.2,67.9,100,92,77,30.02,29.94,15,4,16,0.00
2013-7-30,76.4,71.5,67.5,68.6,65.2,60.6,97,81,71,30.09,30.01,17,6,18,0.00
2013-7-31,79.2,70.6,64.2,66.7,64.2,61.1,97,81,60,30.12,30.02,12,4,15,0.00
2013-8-1,81.2,71.3,65.0,70.2,65.8,62.5,97,84,56,30.03,29.85,14,3,14,0.12
2013-8-2,77.8,71.7,66.0,71.3,68.8,65.1,99,91,77,29.88,29.76,15,5,19,0.61
2013-8-3,74.2,70.7,68.9,69.9,67.8,65.9,97,91,84,29.88,29.79,17,6,17,0.03
2013-8-4,75.7,70.3,65.6,67.7,63.8,58.1,97,80,71,29.87,29.78,23,7,24,0.00
2013-8-5,74.2,67.5,62.1,62.4,57.9,51.7,93,72,49,30.02,29.87,17,7,19,0.00
2013-8-6,77.8,69.1,59.9,65.5,60.4,53.1,96,76,46,30.13,30.02,13,3,13,0.00
2013-8-7,77.2,69.2,61.3,67.3,62.4,56.8,99,81,51,30.16,30.10,13,4,14,0.01
2013-8-8,78.3,72.4,67.5,71.5,68.8,65.1,96,89,76,30.11,30.02,20,6,22,0.02
2013-8-9,75.1,72.3,70.7,73.9,71.4,70.0,99,97,95,30.04,29.78,27,7,27,0.08
2013-8-10,77.8,71.9,68.4,70.6,67.8,62.4,100,87,75,30.00,29.79,15,6,15,0.01
2013-8-11,76.3,68.9,62.9,62.8,59.0,53.9,88,72,47,30.07,29.99,16,5,16,0.00
2013-8-12,72.4,69.2,66.4,71.4,67.4,63.0,99,94,89,30.02,29.90,10,2,12,0.38
2013-8-13,71.5,68.0,64.4,71.4,67.5,63.8,100,99,95,29.91,29.65,19,3,19,0.33
2013-8-14,72.5,67.8,63.4,67.2,60.1,54.8,99,77,62,29.94,29.67,22,10,23,0.00
2013-8-15,73.3,66.8,60.9,61.5,58.5,53.0,87,76,52,30.11,29.94,15,6,17,0.00
2013-8-16,76.2,69.0,63.2,66.9,63.8,60.4,96,84,62,30.18,30.10,13,3,15,0.00
2013-8-17,80.7,69.1,62.9,66.1,62.9,59.8,98,82,53,30.25,30.18,9,2,9,0.00
2013-8-18,72.8,66.8,61.5,67.5,63.0,58.9,99,88,74,30.25,30.08,10,3,11,0.10
2013-8-19,74.2,68.2,60.1,68.7,64.9,58.3,95,90,79,30.08,29.98,14,5,15,0.01
2013-8-20,79.2,70.9,66.8,69.2,66.8,64.5,97,87,66,30.10,29.99,14,5,15,0.00
2013-8-21,81.8,72.9,66.9,73.2,68.7,66.0,98,88,67,30.14,30.05,13,4,16,0.00
2013-8-22,77.5,71.6,68.3,73.5,69.9,67.9,99,95,85,30.07,29.86,19,5,20,0.01
2013-8-23,78.8,70.4,63.3,69.7,65.6,61.5,100,86,65,30.07,29.83,14,4,15,0.01
2013-8-24,74.0,66.6,57.3,64.3,57.6,53.6,96,74,51,30.31,30.07,16,5,19,0.00
2013-8-25,76.3,67.0,57.5,67.5,62.4,55.1,96,86,66,30.34,30.21,14,4,14,0.00
2013-8-26,73.5,69.2,66.9,67.8,65.9,63.4,98,90,81,30.21,29.91,21,6,21,0.36
2013-8-27,73.8,69.3,66.5,71.3,68.5,65.8,100,98,90,29.91,29.80,14,4,15,0.95
2013-8-28,78.0,70.2,66.5,72.1,68.6,66.1,100,95,78,29.93,29.84,12,3,14,0.00
2013-8-29,70.9,67.0,63.5,67.8,65.2,60.4,100,94,87,30.01,29.91,18,6,18,0.01
2013-8-30,73.3,67.0,61.7,69.2,64.5,59.3,98,92,86,30.00,29.83,15,4,16,0.00
2013-8-31,76.5,71.8,68.8,73.3,70.2,68.1,99,95,87,29.85,29.80,19,6,23,0.00
2013-9-1,78.4,73.8,70.6,74.4,72.1,69.6,99,95,87,29.87,29.80,22,6,24,0.00
2013-9-2,77.1,73.0,69.9,76.0,72.6,69.5,100,99,92,29.84,29.71,14,4,26,1.10
2013-9-3,74.4,69.4,66.5,74.3,69.2,65.1,100,99,92,29.82,29.69,22,4,24,0.83
2013-9-4,74.2,68.8,65.4,66.9,63.7,60.6,96,84,73,29.93,29.82,21,9,23,0.01
2013-9-5,72.7,67.8,62.8,68.1,63.7,58.3,96,87,69,30.10,29.88,13,4,15,0.00
2013-9-6,68.3,62.0,57.4,59.1,51.0,44.3,90,68,44,30.22,30.10,14,4,17,0.00
2013-9-7,71.4,66.1,59.3,61.4,57.0,51.8,85,73,58,30.10,29.86,16,7,19,0.00
2013-9-8,74.0,68.2,60.9,67.3,60.3,45.4,94,77,47,30.05,29.75,19,8,20,0.00
2013-9-9,67.8,61.8,56.0,56.5,52.2,44.6,80,71,56,30.22,30.05,15,4,19,0.00
2013-9-10,75.3,68.6,62.4,69.3,63.9,55.4,97,85,76,30.16,30.00,28,6,28,0.00
2013-9-11,76.9,72.2,68.7,72.7,69.9,67.8,98,93,85,30.10,30.00,21,6,21,0.00
2013-9-12,78.2,72.6,67.9,73.3,70.4,67.0,98,93,84,30.00,29.70,25,8,25,0.10
2013-9-13,74.4,69.4,64.4,70.3,67.5,60.3,100,94,82,29.73,29.60,14,5,17,0.09
2013-9-14,67.2,62.5,58.2,60.3,56.1,53.3,88,80,70,30.04,29.73,18,8,18,0.00
2013-9-15,66.4,60.9,55.5,59.1,53.6,49.1,86,78,59,30.15,30.04,15,5,16,0.00
2013-9-16,66.5,63.1,54.7,62.4,57.7,43.1,93,83,66,30.17,30.01,20,6,23,0.00
2013-9-17,61.0,54.4,48.6,46.1,42.6,38.8,80,65,46,30.37,30.17,23,7,24,0.00
2013-9-18,67.5,60.7,48.6,55.7,51.0,42.6,86,71,55,30.30,30.14,13,4,14,0.00
2013-9-19,69.9,64.2,60.8,61.5,58.9,54.6,94,83,71,30.14,30.05,18,7,18,0.00
2013-9-20,75.2,65.1,59.0,64.7,61.1,57.6,98,88,58,30.08,30.01,12,3,12,0.01
2013-9-21,75.5,67.1,58.9,68.5,64.2,58.3,99,91,77,30.01,29.72,17,4,19,0.01
2013-9-22,69.3,65.5,56.4,68.1,60.6,48.1,99,85,66,29.81,29.62,21,8,22,0.56
2013-9-23,63.1,57.1,51.7,51.6,48.3,45.1,85,73,62,29.97,29.81,19,9,21,0.00
2013-9-24,64.8,56.7,50.7,57.2,48.8,43.3,84,75,66,29.98,29.79,21,9,22,0.00
2013-9-25,66.5,60.5,55.5,55.9,52.3,46.6,83,75,62,29.93,29.85,13,5,15,0.00
2013-9-26,63.8,60.0,54.7,54.0,52.1,49.1,89,76,61,30.07,29.93,11,4,13,0.00
2013-9-27,65.2,60.7,58.0,56.3,54.1,51.8,87,79,70,30.22,30.07,15,4,15,0.00
2013-9-28,69.8,61.8,55.7,59.7,55.7,50.4,93,81,65,30.28,30.21,13,4,13,0.00
2013-9-29,63.6,59.6,53.7,58.8,54.7,49.6,96,84,73,30.22,30.05,15,5,17,0.00
2013-9-30,67.2,61.4,57.0,60.0,57.7,54.9,96,88,72,30.05,29.93,13,4,13,0.00
2013-10-1,71.2,64.5,58.9,63.6,60.1,55.6,95,86,73,29.93,29.85,13,6,14,0.00
2013-10-2,72.5,66.9,63.0,65.9,63.5,60.9,96,89,74,29.96,29.85,18,5,20,0.00
2013-10-3,71.6,65.5,61.4,63.3,58.9,53.1,95,80,54,30.07,29.96,13,5,13,0.00
2013-10-4,73.1,64.9,60.1,67.9,61.1,56.6,95,88,80,30.05,29.99,11,3,13,0.00
2013-10-5,67.9,63.0,59.5,62.5,60.5,58.6,98,92,81,30.09,30.01,12,4,14,0.01
2013-10-6,64.8,62.1,59.7,63.8,60.4,58.1,99,94,85,30.15,30.06,17,7,18,0.13
2013-10-7,75.9,69.8,64.8,71.4,67.9,63.5,100,94,82,30.06,29.83,23,7,26,0.00
2013-10-8,66.6,61.9,57.2,63.5,51.0,47.8,95,68,51,30.30,29.88,20,7,20,0.00
2013-10-9,62.0,58.6,56.6,51.8,50.1,47.1,81,74,65,30.37,30.27,22,9,23,0.00
2013-10-10,63.5,59.9,56.4,59.4,56.1,50.8,93,87,81,30.27,30.07,18,8,20,0.00
2013-10-11,67.0,62.2,59.4,61.8,58.3,51.2,94,87,73,30.07,30.01,18,7,19,0.00
2013-10-12,65.8,60.6,57.3,58.8,55.1,50.0,88,82,73,30.28,30.06,28,10,28,0.00
2013-10-13,60.6,57.2,54.5,53.0,50.6,47.4,88,79,71,30.36,30.25,21,9,22,0.00
2013-10-14,59.4,54.5,48.6,51.7,48.7,46.3,93,81,73,30.35,30.23,12,3,12,0.00
2013-10-15,63.1,57.5,48.5,57.0,52.9,46.6,97,85,65,30.23,30.10,16,5,17,0.00
2013-10-16,64.3,59.9,55.5,59.3,56.5,51.8,95,89,81,30.11,29.88,16,4,16,0.00
2013-10-17,67.0,62.5,59.8,63.5,60.5,58.1,97,94,86,29.88,29.71,14,4,18,0.00
2013-10-18,65.6,63.3,60.2,63.6,57.0,47.9,98,81,64,29.90,29.63,27,11,27,0.02
2013-10-19,66.5,60.1,54.0,56.1,49.8,45.5,88,70,47,29.96,29.72,15,4,16,0.00
2013-10-20,61.6,59.3,55.9,59.6,47.4,38.8,95,66,48,30.00,29.67,25,12,26,0.00
2013-10-21,64.1,58.9,53.5,50.7,47.0,43.4,77,65,53,30.10,29.98,16,6,18,0.00
2013-10-22,66.5,60.4,53.3,57.9,54.0,45.1,93,80,69,29.98,29.69,19,5,19,0.00
2013-10-23,53.4,50.6,46.5,45.2,39.8,35.8,82,67,56,29.77,29.54,25,5,25,0.08
2013-10-24,53.7,49.7,43.4,42.2,37.7,31.7,83,64,46,29.87,29.62,30,15,30,0.03
2013-10-25,50.9,48.6,45.2,39.2,36.0,31.8,75,62,49,30.12,29.87,28,14,32,0.00
2013-10-26,57.4,52.9,48.8,45.9,40.3,35.4,76,62,53,30.12,29.83,30,11,31,0.00
2013-10-27,56.2,53.8,49.9,44.3,39.6,33.3,80,59,47,30.04,29.77,30,12,31,0.00
2013-10-28,58.2,52.8,44.2,45.2,39.4,35.0,75,61,51,30.27,30.04,27,9,27,0.00
2013-10-29,52.0,46.8,43.5,39.2,34.9,30.8,81,64,46,30.35,30.27,17,4,17,0.00
2013-10-30,60.2,53.4,44.3,53.2,45.5,38.2,90,75,59,30.30,30.14,11,3,13,0.00
2013-10-31,64.9,60.7,53.9,62.6,57.7,51.6,96,90,84,30.18,29.81,24,6,27,0.00
2013-11-1,68.0,63.5,60.9,64.8,61.1,58.0,96,92,87,29.81,29.51,30,10,33,0.03
2013-11-2,62.1,59.6,57.8,60.0,54.9,50.1,97,85,72,29.68,29.57,16,5,19,0.00
2013-11-3,58.7,47.8,38.1,51.0,38.6,22.0,85,72,43,30.33,29.68,22,9,24,0.00
2013-11-4,44.9,40.6,36.8,32.1,28.8,22.8,72,63,54,30.61,30.33,23,8,23,0.00
2013-11-5,50.3,45.2,40.6,39.8,35.7,30.4,79,70,59,30.62,30.46,12,3,14,0.00
2013-11-6,60.2,54.0,45.6,56.1,48.4,39.8,93,82,65,30.46,30.04,14,4,17,0.00
2013-11-7,61.5,56.6,46.5,60.9,54.3,39.6,99,92,75,30.04,29.65,28,10,28,0.90
2013-11-8,49.9,45.8,42.0,39.5,34.8,29.0,78,66,51,30.07,29.79,38,16,38,0.00
2013-11-9,51.2,45.0,41.6,41.3,33.2,27.8,72,63,51,30.17,29.97,33,13,33,0.00
2013-11-10,57.5,53.1,49.0,46.1,42.4,36.7,79,67,56,29.97,29.68,34,13,38,0.00
2013-11-11,54.7,49.2,45.0,47.1,38.1,31.9,76,66,58,30.06,29.85,35,16,40,0.00
2013-11-12,54.8,41.0,32.8,47.7,32.8,22.2,93,73,61,30.12,29.83,28,14,29,0.07
2013-11-13,40.9,35.0,30.5,30.2,22.7,17.7,77,61,45,30.21,30.11,27,13,29,0.00
2013-11-14,49.9,44.1,39.6,36.9,33.3,29.2,77,66,46,30.14,30.02,30,13,30,0.00
2013-11-15,53.6,52.9,52.1,48.4,47.9,47.3,85,83,81,30.16,30.12,16,6,17,0.00
2013-11-16,56.6,53.1,50.1,50.2,46.2,37.5,93,78,57,30.29,30.24,12,4,12,0.00
2013-11-17,61.7,56.8,48.2,60.5,54.9,46.3,99,94,81,30.27,29.81,17,5,18,0.06
2013-11-18,62.7,58.4,52.7,62.3,54.2,40.8,99,87,61,29.81,29.57,30,9,32,0.34
2013-11-19,52.6,44.6,36.2,40.7,31.2,23.5,67,59,47,30.24,29.65,30,16,33,0.00
2013-11-20,42.6,37.3,31.6,27.4,20.9,14.5,67,52,35,30.54,30.24,23,7,23,0.00
2013-11-21,49.4,42.8,37.8,41.7,34.1,26.7,80,71,62,30.55,30.33,11,3,11,0.00
2013-11-22,54.8,52.4,49.4,53.2,49.1,41.8,96,89,75,30.33,29.79,22,7,22,0.10
2013-11-23,53.7,45.4,34.8,51.7,33.8,23.1,93,65,42,29.87,29.75,35,16,36,0.00
2013-11-24,34.9,28.7,25.5,25.7,16.7,8.4,72,61,43,30.15,29.77,43,25,43,0.00
2013-11-25,41.0,30.5,24.0,32.6,19.4,11.7,74,63,49,30.34,30.15,39,14,40,0.00
2013-11-26,52.1,43.6,39.7,51.2,35.8,29.0,97,75,60,30.25,29.89,25,9,28,0.22
2013-11-27,61.4,53.4,41.0,60.7,52.0,34.4,99,95,76,29.89,29.15,37,13,37,1.60
2013-11-28,42.0,35.2,31.2,35.5,23.8,15.9,78,63,48,30.38,29.50,39,18,39,0.00
2013-11-29,37.0,33.5,29.5,23.9,19.7,12.7,62,56,49,30.69,30.38,19,8,21,0.00
2013-11-30,40.4,32.3,26.5,31.5,23.5,13.1,81,70,50,30.73,30.39,14,4,14,0.00
2013-12-1,52.9,47.5,40.2,50.6,43.4,31.1,98,86,70,30.39,29.95,18,6,18,0.05
2013-12-2,43.2,41.7,39.6,41.9,40.3,37.8,97,95,91,29.95,29.84,10,3,11,0.00
2013-12-3,50.6,43.5,36.8,41.8,38.8,35.8,97,84,63,29.91,29.78,17,6,17,0.00
2013-12-4,46.9,42.9,40.4,42.3,36.9,33.1,92,79,67,30.13,29.91,15,5,17,0.00
2013-12-5,57.3,53.7,44.5,56.4,52.1,42.3,98,95,90,30.12,29.90,20,5,20,0.00
2013-12-6,55.7,49.9,39.4,55.3,48.9,37.8,99,97,90,30.04,29.85,23,7,23,0.33
2013-12-7,42.3,38.5,34.7,38.8,32.6,26.1,95,80,65,30.40,30.01,22,12,25,0.14
2013-12-8,34.9,33.3,30.8,31.7,23.5,19.3,89,68,56,30.53,30.38,22,6,22,0.00
2013-12-9,49.7,41.8,34.0,49.1,40.4,31.5,99,95,87,30.40,29.85,34,13,34,0.24
2013-12-10,42.6,37.5,33.6,39.0,34.2,25.3,96,88,72,29.97,29.74,33,12,35,0.14
2013-12-11,35.9,34.2,32.5,28.4,24.4,18.7,76,67,54,30.20,29.97,34,18,34,0.00
2013-12-12,35.0,27.5,24.9,25.8,15.8,8.4,73,61,47,30.20,30.02,31,13,33,0.00
2013-12-13,35.3,31.8,28.1,25.1,21.9,16.3,73,67,57,30.26,29.97,33,18,35,0.00
2013-12-14,38.7,27.1,20.5,37.3,22.2,12.4,97,82,60,30.47,29.90,37,12,39,0.17
2013-12-15,55.1,40.9,35.1,54.7,37.9,26.3,99,89,65,29.90,29.29,37,16,39,0.87
2013-12-16,38.2,32.1,27.3,31.1,20.6,12.7,76,62,49,30.14,29.69,34,15,35,0.00
2013-12-17,42.2,29.0,23.1,41.4,24.6,13.5,97,84,58,30.17,29.80,25,9,26,0.29
2013-12-18,37.6,32.6,25.8,29.8,26.5,23.8,93,79,63,30.04,29.74,29,14,29,0.00
2013-12-19,47.0,41.4,34.5,38.9,33.4,24.3,79,73,66,30.06,29.92,24,11,28,0.00
2013-12-20,52.0,47.3,40.8,47.4,43.0,34.9,95,85,75,30.05,29.91,17,5,19,0.00
2013-12-21,54.5,50.9,48.0,51.9,49.2,46.9,97,94,88,29.96,29.86,20,6,22,0.00
2013-12-22,58.8,54.8,52.2,56.1,53.5,48.9,99,96,79,29.94,29.79,32,9,33,0.00
2013-12-23,55.7,46.4,40.1,54.2,45.4,39.5,99,97,92,30.02,29.85,20,6,24,0.39
2013-12-24,42.7,36.7,31.4,40.5,28.3,18.6,92,72,53,30.16,29.96,24,11,27,0.08
2013-12-25,31.7,25.1,21.5,25.3,14.6,9.9,80,64,51,30.45,30.16,30,8,32,0.00
2013-12-26,45.0,38.0,30.7,40.7,31.9,25.3,92,79,68,30.38,30.04,33,9,33,0.02
2013-12-27,39.2,36.5,33.8,30.6,27.6,24.7,80,70,63,30.27,30.18,25,13,26,0.00
2013-12-28,47.6,43.7,37.7,41.4,36.7,28.7,88,77,65,30.21,29.98,25,10,26,0.00
2013-12-29,56.1,46.5,41.1,55.8,43.7,38.7,99,90,76,29.99,29.25,28,8,28,0.80
2013-12-30,45.2,37.9,23.7,41.0,31.5,15.0,94,78,54,30.07,29.48,26,14,26,0.00
2013-12-31,34.1,26.4,21.5,26.5,18.6,14.1,80,72,62,30.12,29.98,31,10,31,0.00
2014-1-1,32.5,29.8,26.2,21.3,18.6,12.8,73,63,53,30.31,30.12,25,10,27,0.00
2014-1-2,33.7,31.4,29.5,32.6,28.3,21.3,96,88,67,30.23,29.63,31,12,33,0.00